Back to catalog

KUIPER-00133

AliveCommunicationsLEO
NORAD 65764·PAYLOAD·🇺🇸 United States

Launched Sep 25, 2025 from Cape Canaveral Space Force Station

Loading…

Next Passes (next 24 hours)

TLE

FreshSource: CelesTrak SupGP

Epoch: Sep 14, 2026, 17:19 UTC

1 65764C 25217C   26257.72210648  .00002594  00000+0  33963-3 0  2570
2 65764  51.9028 297.2856 0000546  83.6957 275.4936 14.79920325    16

Track KUIPER-00133 in real time with AllMySat

Download on the App Store